This demonstration page uses our WeatherBlox Daily Observations layout. Learn more.

39.51506, -84.39828

Hourly Observations for November 18, 2018

Temp ( °F °C ) Dew Point ( °F °C ) Humidity (%) Winds ( mph kmh ) Pressure ( in mb ) Visibility ( mi km ) Precip ( " mm )
12:15 am 00:15 Clear with Mist and Fog 34 1.1 32 0.2 94 94 Calm 30.3 1026 5 8.0467 0 0
12:35 am 00:35 Clear with Mist and Fog 34 1.1 33 0.3 94 94 Calm 30.27 1025 5 8.0467 0 0
12:55 am 00:55 Clear with Mist and Fog 34 1.3 33 0.8 97 97 Calm 30.27 1025 4 6.43736 0 0
1:15 am 01:15 Clear with Mist and Fog 35 1.5 34 1 97 97 NNW 3 6 30.27 1025 5 8.0467 0 0
1:35 am 01:35 Clear with Mist and Fog 35 1.5 33 0.7 94 94 N 3 6 30.27 1025 7 11.26538 0 0
1:55 am 01:55 Clear with Mist and Fog 33 0.8 32 -0.1 94 94 N 3 6 30.27 1025 5 8.0467 0 0
2:15 am 02:15 Partly Cloudy with Mist and Fog 34 0.9 33 0.3 96 96 Calm 30.27 1025 5 8.0467 0 0
2:35 am 02:35 Cloudy with Mist and Fog 34 1.2 33 0.3 94 94 Calm 30.27 1025 5 8.0467 0 0
2:55 am 02:55 Cloudy with Mist and Fog 34 1 33 0.3 95 95 Calm 30.27 1025 5 8.0467 0 0
3:15 am 03:15 Cloudy with Mist and Fog 36 2.3 34 1.3 93 93 Calm 30.27 1025 5 8.0467 0 0
3:35 am 03:35 Cloudy with Mist and Fog 37 2.9 35 1.5 91 91 NNE 3 6 30.27 1025 7 11.26538 0 0
3:55 am 03:55 Cloudy with Mist and Fog 38 3.1 35 1.5 89 89 NNE 3 6 30.27 1025 7 11.26538 0 0
4:15 am 04:15 Cloudy with Mist and Fog 38 3.1 35 1.5 89 89 Calm 30.24 1024 7 11.26538 0 0
4:35 am 04:35 Cloudy with Mist and Fog 38 3.2 35 1.5 89 89 NNE 3 6 30.24 1024 7 11.26538 0 0
4:55 am 04:55 Cloudy with Mist and Fog 37 2.8 34 1.3 90 90 N 3 6 30.24 1024 7 11.26538 0 0
5:15 am 05:15 Cloudy with Mist and Fog 37 3 35 1.6 91 91 NE 5 7 30.24 1024 7 11.26538 0 0
5:35 am 05:35 Cloudy 38 3.1 34 1.3 88 88 NE 5 7 30.24 1024 7 11.26538 0 0
5:55 am 05:55 Partly Cloudy 37 2.5 34 0.9 89 89 N 3 6 30.24 1024 7 11.26538 0 0
6:15 am 06:15 Partly Cloudy with Mist and Fog 36 2.1 34 1 93 93 Calm 30.24 1024 5 8.0467 0 0
6:35 am 06:35 Clear with Mist and Fog 34 1.1 33 0.4 95 95 NNE 3 6 30.24 1024 5 8.0467 0 0
6:55 am 06:55 Clear with Mist and Fog 33 0.7 32 0 95 95 N 5 7 30.24 1024 5 8.0467 0 0
7:15 am 07:15 Clear with Mist and Fog 34 0.9 32 0.1 94 94 NNE 3 6 30.24 1024 5 8.0467 0 0
7:35 am 07:35 Sunny with Mist and Fog 32 -0.1 30 -1 94 94 N 3 6 30.24 1024 3 4.82802 0 0
7:55 am 07:55 Sunny with Mist and Fog 32 0.2 31 -0.3 96 96 Calm 30.24 1024 3 4.82802 0 0
8:15 am 08:15 Sunny with Mist and Fog 33 0.5 32 0 96 96 Calm 30.24 1024 3 4.82802 0 0
8:35 am 08:35 Sunny with Mist and Fog 37 2.8 35 1.8 93 93 Calm 30.24 1024 4 6.43736 0 0
8:55 am 08:55 Sunny 39 3.9 35 1.4 84 84 ENE 3 6 30.24 1024 7 11.26538 0 0
9:15 am 09:15 Hazy 40 4.3 35 1.5 82 82 NE 3 6 30.24 1024 7 11.26538 0 0
9:35 am 09:35 Sunny 41 5 35 1.7 79 79 N 3 6 30.24 1024 7 11.26538 0 0
9:55 am 09:55 Sunny 42 5.6 35 1.7 76 76 Calm 30.21 1023 10 16.0934 0 0
10:15 am 10:15 Sunny 44 6.8 36 2.3 73 73 Calm 30.21 1023 10 16.0934 0 0
10:35 am 10:35 Sunny 44 6.8 35 1.9 71 71 Calm 30.18 1022 10 16.0934 0 0
10:55 am 10:55 Sunny 46 7.8 37 2.6 70 70 Calm 30.18 1022 10 16.0934 0 0
11:10 am 11:10 Sunny 46 7.8 37 2.5 69 69 SW 3 6 30.18 1022 10 16.0934 0 0
11:35 am 11:35 Sunny 47 8.6 38 3.1 69 69 S 5 7 30.18 1022 10 16.0934 0 0
11:55 am 11:55 Partly Cloudy 48 8.8 37 2.9 67 67 S 7 11 30.18 1022 10 16.0934 0 0
12:15 pm 12:15 Sunny 49 9.4 38 3.4 66 66 SE 6 9 30.15 1021 10 16.0934 0 0
12:35 pm 12:35 Mostly Cloudy 49 9.3 38 3.2 66 66 S 6 9 30.15 1021 10 16.0934 0 0
12:55 pm 12:55 Partly Cloudy 50 10.2 38 3.6 64 64 S 5 7 30.15 1021 10 16.0934 0 0
1:15 pm 13:15 Mostly Cloudy 50 10 39 3.8 66 66 SSE 3 6 30.15 1021 10 16.0934 0 0
1:35 pm 13:35 Cloudy 51 10.4 39 3.9 64 64 SE 3 6 30.15 1021 10 16.0934 0 0
1:55 pm 13:55 Cloudy 51 10.3 39 4.1 66 66 N 8 13 30.15 1021 10 16.0934 0 0
2:15 pm 14:15 Cloudy 51 10.3 40 4.2 66 66 NW 7 11 30.15 1021 10 16.0934 0 0
2:35 pm 14:35 Mostly Cloudy 49 9.3 39 4 70 70 N 10 17 30.15 1021 10 16.0934 0 0
2:55 pm 14:55 Cloudy 47 8.6 39 3.8 72 72 NNW 8 13 30.15 1021 10 16.0934 0 0
3:15 pm 15:15 Cloudy 47 8.4 39 3.7 73 73 NNW 8 13 30.15 1021 10 16.0934 0 0
3:35 pm 15:35 Cloudy 47 8.5 39 3.7 72 72 NNW 3 6 30.15 1021 10 16.0934 0 0
3:55 pm 15:55 Cloudy 47 8.4 39 3.9 74 74 NNW 5 7 30.15 1021 10 16.0934 0 0
4:15 pm 16:15 Cloudy 47 8.1 38 3.5 73 73 N 6 9 30.15 1021 10 16.0934 0 0
4:35 pm 16:35 Cloudy 46 7.8 38 3.6 75 75 N 5 7 30.15 1021 10 16.0934 0 0
4:55 pm 16:55 Cloudy with Haze 46 7.5 38 3.5 76 76 N 7 11 30.15 1021 7 11.26538 0 0
5:15 pm 17:15 Cloudy with Haze 45 7.2 38 3.3 77 77 N 6 9 30.15 1021 7 11.26538 0 0
5:35 pm 17:35 Cloudy with Haze 44 6.9 38 3.3 78 78 N 7 11 30.15 1021 5 8.0467 0 0
5:55 pm 17:55 Cloudy with Haze 44 6.6 38 3.3 80 80 N 7 11 30.15 1021 7 11.26538 0 0
6:15 pm 18:15 Cloudy with Haze 43 6.2 38 3.2 81 81 N 7 11 30.15 1021 7 11.26538 0 0
6:35 pm 18:35 Cloudy with Haze 43 6 38 3.2 82 82 N 5 7 30.15 1021 7 11.26538 0 0
6:55 pm 18:55 Cloudy with Haze 42 5.8 37 3 82 82 NNW 9 15 30.15 1021 7 11.26538 0 0
7:15 pm 19:15 Cloudy with Haze 42 5.6 37 2.8 82 82 NNW 9 15 30.18 1022 7 11.26538 0 0
7:35 pm 19:35 Cloudy with Haze 42 5.5 37 2.8 83 83 NNW 7 11 30.18 1022 7 11.26538 0 0
7:55 pm 19:55 Cloudy with Haze 42 5.3 37 2.5 82 82 NNW 8 13 30.18 1022 7 11.26538 0 0
8:15 pm 20:15 Cloudy with Mist and Fog 41 5.2 37 2.5 83 83 NNW 9 15 30.18 1022 7 11.26538 0 0
8:35 pm 20:35 Cloudy with Haze 41 5.1 36 2.3 82 82 N 7 11 30.21 1023 7 11.26538 0 0
8:55 pm 20:55 Cloudy with Haze 41 5.1 36 2.4 83 83 N 5 7 30.21 1023 7 11.26538 0 0
9:15 pm 21:15 Cloudy with Haze 41 5 36 2.4 83 83 N 7 11 30.21 1023 5 8.0467 0 0
9:35 pm 21:35 Cloudy with Mist and Fog 41 5 37 2.5 84 84 NNE 5 7 30.21 1023 5 8.0467 0 0
9:55 pm 21:55 Cloudy with Haze 41 4.9 37 2.5 85 85 N 6 9 30.21 1023 5 8.0467 0 0
10:15 pm 22:15 Cloudy with Haze 41 4.9 37 2.5 85 85 NNE 6 9 30.21 1023 5 8.0467 0 0
10:35 pm 22:35 Cloudy with Haze 41 4.8 36 2.4 85 85 NNE 5 7 30.21 1023 5 8.0467 0 0
10:55 pm 22:55 Cloudy with Haze 40 4.7 37 2.5 86 86 N 5 7 30.21 1023 5 8.0467 0 0
11:15 pm 23:15 Cloudy with Mist and Fog 40 4.7 37 2.5 86 86 Calm 30.21 1023 5 8.0467 0 0
11:35 pm 23:35 Cloudy with Mist and Fog 40 4.7 37 2.6 86 86 Calm 30.21 1023 5 8.0467 0 0
11:55 pm 23:55 Cloudy with Mist and Fog 40 4.7 37 2.6 86 86 N 3 6 30.18 1022 5 8.0467 0 0

Powered by AerisWeather